Location: Aula-Vintri
(58.3875°N, 22.4322°E)
Time: 10:53:32
(UTC+00:00)

SJ-6B - Pass Details

Date: 13 October 2019
Orbit: 510 x 582 km, 97.6° (Epoch: 14 November)

Event Time Altitude Azimuth Distance (km) Brightness Sun altitude
Exits shadow 17:54:51 34° 166° (SSE) 885 3.6 -19.4°
Maximum altitude 17:56:25 87° 250° (WSW) 538 2.7 -19.6°
Drops below altitude 10° 18:00:15 10° 344° (NNW) 1,772 5.8 -20.1°
Sets 18:02:21 0° 345° (NNW) 2,657 6.8 -20.4°
